This is the latest recevied weather packets stored in our database for station/object EA7OC-10. If no packets are shown the sender has not sent any weather packets the latest 10 day(s).
| Time | Temp. | Humidity | Pressure | Rain* | Wind** | Luminosity | Snow |
|---|---|---|---|---|---|---|---|
| 1777843664 | 21.11° C | 31% | 1015 hPa | - | - | - | - |
| 1777842764 | 21.67° C | 31% | 1014.8 hPa | - | - | - | - |
| 1777841864 | 22.22° C | 30% | 1014.7 hPa | - | - | - | - |
| 1777840964 | 22.22° C | 30% | 1014.5 hPa | - | - | - | - |
| 1777840064 | 22.22° C | 30% | 1014.2 hPa | - | - | - | - |
| 1777839164 | 22.78° C | 30% | 1014.1 hPa | - | - | - | - |
| 1777838264 | 22.78° C | 30% | 1013.7 hPa | - | - | - | - |
| 1777837363 | 23.33° C | 30% | 1013.5 hPa | - | - | - | - |
| 1777836463 | 23.33° C | 30% | 1013.3 hPa | - | - | - | - |
| 1777835563 | 23.89° C | 29% | 1013.2 hPa | - | - | - | - |
| 1777834663 | 24.44° C | 29% | 1013 hPa | - | - | - | - |
| 1777833763 | 25° C | 29% | 1012.7 hPa | - | - | - | - |
| 1777832863 | 25.56° C | 29% | 1012.6 hPa | - | - | - | - |
| 1777831963 | 26.11° C | 29% | 1012.7 hPa | - | - | - | - |
| 1777831063 | 27.22° C | 29% | 1012.7 hPa | - | - | - | - |
| 1777830163 | 28.33° C | 28% | 1012.5 hPa | - | - | - | - |
| 1777829263 | 30° C | 29% | 1012.5 hPa | - | - | - | - |
| 1777828362 | 31.11° C | 29% | 1012.6 hPa | - | - | - | - |
| 1777827462 | 31.67° C | 30% | 1012.6 hPa | - | - | - | - |
| 1777826562 | 32.22° C | 29% | 1012.6 hPa | - | - | - | - |
| 1777825662 | 32.78° C | 30% | 1012.5 hPa | - | - | - | - |
| 1777824761 | 32.22° C | 30% | 1012.7 hPa | - | - | - | - |
| 1777823861 | 32.78° C | 30% | 1012.7 hPa | - | - | - | - |
| 1777822960 | 32.78° C | 31% | 1012.8 hPa | - | - | - | - |
| 1777822060 | 32.78° C | 31% | 1012.8 hPa | - | - | - | - |
* Rain since midnight (hover to see other rain measurements)
** Current wind speed in m/s (hover to see current wind gust speed)